Location: Sungai Anya
(2.6167°N, 114.0500°E)
Time: 19:42:56
(UTC+00:00)

NOAA 15 - Pass Details

Date: 19 October 2021
Orbit: 797 x 813 km, 98.7° (Epoch: 08 December)

Event Time Altitude Azimuth Distance (km) Brightness Sun altitude
Rises 11:32:37 0° 163° (SSE) 3,305 7.7 -21.1°
Reaches altitude 10° 11:34:57 10° 161° (SSE) 2,375 6.9 -21.7°
Maximum altitude 11:40:11 71° 77° (ENE) 847 4.4 -23.0°
Drops below altitude 10° 11:45:25 10° 354° (N) 2,379 7.0 -24.2°
Sets 11:47:45 0° 352° (N) 3,310 7.8 -24.8°
